Wind_Speed
17 17 17 18 19 19 19 19 19 19 20 20 21 21 21 21 21 21 20 21 20 20 20 21 22 23 24 23 24 24 24 25 24 24 23 24 24 23 23 23 22 22 22 21
17 17 17 18 18 19 19 20 20 20 20 21 21 22 21 21 21 21 21 21 21 21 21 21 22 23 23 23 23 24 24 24 24 24 24 24 23 23 23 23 24 23 22 22
18 19 19 19 18 19 19 20 20 20 20 22 22 22 22 22 22 22 22 22 22 22 21 22 22 22 23 23 23 23 23 24 24 24 24 24 24 24 23 24 24 24 23 23
20 20 21 19 18 18 19 20 20 20 20 22 22 22 22 23 22 22 23 23 22 23 22 22 22 22 22 22 23 23 23 23 24 24 25 25 24 24 24 24 24 24 24 24
21 21 20 20 19 19 20 20 20 20 21 21 22 22 22 23 23 23 23 22 23 22 22 21 21 21 22 22 23 23 23 23 24 24 25 25 25 24 24 24 24 24 25 25
21 22 21 20 19 19 21 20 20 21 21 21 22 22 22 23 23 23 23 23 23 22 22 22 22 22 22 22 23 23 22 22 23 23 24 25 25 25 25 25 25 25 26 26
22 22 22 20 19 20 20 20 21 21 21 22 22 22 23 23 23 24 23 23 22 22 22 22 22 22 22 22 22 23 23 23 23 23 23 24 25 25 25 24 25 25 26 26
22 22 21 20 20 20 20 21 21 21 21 21 22 22 23 22 22 23 24 24 23 23 22 22 21 21 22 22 23 23 24 24 24 24 23 24 25 25 25 25 25 26 26 26
22 21 21 21 20 20 20 21 21 22 22 22 22 22 22 22 22 23 24 24 24 23 22 22 21 21 21 22 24 25 25 25 25 25 25 24 25 26 26 26 26 27 26 26
22 21 21 21 21 21 21 22 22 22 22 22 22 22 22 22 23 23 23 24 24 23 22 22 22 22 23 24 25 26 26 26 26 26 25 25 26 27 26 26 27 27 27 27
23 22 23 23 23 23 22 22 22 22 23 23 23 23 23 22 23 22 23 23 23 23 23 23 23 24 24 25 25 26 27 27 27 27 26 26 26 26 27 27 27 27 26 26
23 23 24 24 24 24 24 24 24 24 24 24 24 23 23 23 23 23 23 24 23 23 23 23 24 24 25 26 26 27 27 27 27 26 26 26 27 26 26 26 26 26 26 26
25 24 25 25 25 25 25 25 25 25 24 24 24 24 24 24 24 24 24 24 24 23 23 24 25 25 26 26 27 27 28 27 26 26 26 26 27 27 27 27 27 27 27 26
25 25 26 26 26 26 26 25 25 24 24 24 24 24 24 24 24 25 25 25 24 24 24 24 24 25 26 27 27 28 28 27 27 27 26 26 27 27 27 27 27 27 27 27
26 26 26 26 25 25 26 26 25 25 25 25 25 25 24 24 24 24 24 24 24 23 23 24 24 25 26 27 27 28 28 27 27 27 26 26 27 27 27 27 27 27 27 27
26 26 26 26 26 26 26 26 26 26 26 26 25 25 25 25 25 25 25 25 24 24 23 24 24 25 26 27 27 27 27 26 26 26 26 26 27 27 27 27 28 28 27 27
28 27 27 26 26 26 26 27 27 26 26 26 26 26 26 25 25 25 25 25 25 24 23 23 24 24 25 26 26 26 26 26 26 27 27 28 27 27 27 28 28 27 27 27
29 28 27 27 28 28 28 27 27 27 26 26 26 27 26 26 25 25 25 25 24 24 23 23 23 24 25 25 25 25 26 27 27 28 28 28 28 27 27 28 28 28 27 26
30 29 29 29 29 29 28 28 27 27 27 27 27 27 26 26 25 25 25 24 23 23 23 23 24 25 25 25 26 26 27 27 28 28 28 28 27 28 28 28 28 27 27 27
30 31 30 30 29 30 29 29 29 28 28 27 27 26 26 26 25 24 24 23 23 23 24 24 25 26 25 25 26 27 27 28 28 27 27 27 27 28 28 28 28 27 27 27
30 30 30 30 30 30 29 29 29 29 28 27 26 26 26 26 25 24 23 23 23 24 24 25 25 26 26 26 26 27 28 28 27 27 27 27 27 28 28 28 28 28 28 27
29 29 29 30 30 30 29 29 29 28 27 27 27 27 26 25 24 24 23 24 24 25 25 25 26 27 27 27 28 28 28 28 28 28 28 28 28 29 29 28 28 28 28 28
28 28 29 29 30 30 29 29 28 28 27 27 27 26 26 25 24 24 24 25 25 26 26 26 27 27 28 28 28 28 29 29 29 29 29 29 29 29 29 29 29 29 29 29
28 28 29 29 29 28 28 28 29 28 28 28 27 27 27 26 25 25 25 26 26 27 27 26 27 27 28 28 28 29 29 29 29 29 29 29 29 29 29 29 28 28 29 29
27 27 28 28 28 28 28 29 29 28 28 28 28 28 28 27 27 26 26 26 27 27 27 27 27 28 28 28 28 28 28 28 28 29 29 29 29 29 28 28 28 28 28 29
28 28 28 28 28 28 29 29 29 29 29 29 29 29 28 28 27 27 28 28 28 28 28 28 28 28 28 28 28 28 28 28 28 29 29 29 28 27 27 27 27 28 29 29
30 29 29 29 29 29 29 29 29 29 29 29 29 29 28 28 28 28 28 28 28 28 28 28 28 28 28 29 29 29 29 28 28 29 28 28 28 27 27 27 28 28 28 29
Wind_Direction
265 264 262 263 264 264 267 269 272 273 274 276 277 278 277 277 276 274 272 272 271 270 268 269 271 272 273 274 274 275 277 279 279 280 281 281 280 280 281 282 284 286 288 288
265 265 265 266 267 267 270 272 274 274 275 276 279 279 278 276 275 274 274 273 272 270 269 269 271 273 274 273 274 275 276 278 278 279 281 282 281 280 280 282 284 285 287 288
268 267 268 267 270 271 272 274 276 276 276 275 278 280 279 278 277 276 276 276 274 272 269 271 273 274 275 276 276 277 278 278 277 278 279 279 281 280 281 281 283 284 285 287
271 268 268 271 273 275 275 276 278 278 277 277 278 278 277 276 277 276 276 275 272 271 270 270 273 276 277 278 277 278 279 280 279 279 279 278 280 280 279 280 281 282 284 286
274 272 273 273 274 275 277 277 279 280 278 278 278 277 277 277 277 277 276 275 273 271 270 272 274 277 277 278 278 278 279 280 280 279 277 277 279 280 279 281 283 284 286 287
274 275 275 275 276 278 279 279 280 281 280 279 279 279 278 278 279 279 278 277 276 273 271 272 275 276 276 279 279 278 278 279 281 280 277 277 279 280 280 281 283 285 287 288
275 275 275 275 276 277 279 282 282 282 282 281 281 282 282 280 279 279 280 279 277 275 272 272 274 275 276 278 280 279 279 278 281 282 281 279 280 281 281 281 283 285 287 288
276 274 274 274 276 277 279 281 283 283 283 282 282 282 283 282 281 280 280 279 278 276 273 274 274 274 276 278 280 280 280 281 282 284 282 280 280 281 281 280 282 285 287 288
275 276 273 273 275 277 278 280 282 283 283 283 283 284 283 282 282 282 280 279 277 275 274 273 273 273 274 276 278 280 280 281 283 285 283 281 282 282 281 281 283 284 286 287
274 274 272 271 272 275 277 279 281 283 283 284 284 284 284 283 283 282 281 280 276 274 273 272 272 273 276 277 278 279 280 281 284 285 284 283 284 282 281 282 283 283 284 285
271 271 271 270 272 275 277 279 280 281 282 284 285 285 284 284 283 282 281 279 276 273 271 271 271 274 277 278 278 280 281 281 284 284 283 282 283 283 282 282 283 283 284 284
272 271 271 273 274 274 275 278 280 281 282 283 283 284 284 284 283 282 281 279 276 273 272 272 272 273 275 277 279 281 282 284 285 285 284 284 285 284 284 284 284 284 285 284
271 271 271 273 275 275 277 277 279 281 281 282 282 282 283 284 283 282 280 278 276 274 274 273 271 272 274 276 279 281 282 284 286 287 287 286 285 284 284 285 285 285 285 284
271 270 270 272 273 273 275 277 279 279 281 283 284 283 283 283 283 281 280 278 275 275 275 273 272 273 274 275 277 280 281 283 285 286 287 287 287 285 284 284 285 285 284 283
272 272 273 272 271 273 274 276 277 279 280 283 285 284 284 284 284 283 281 279 277 277 277 275 274 274 274 276 278 280 281 283 284 286 287 287 287 286 285 286 286 285 284 283
272 273 273 271 271 273 275 276 276 277 279 281 283 284 283 282 282 282 282 281 279 279 278 276 276 276 276 277 278 280 282 285 285 285 286 286 287 287 287 287 286 285 284 284
271 271 271 271 272 273 274 275 275 276 278 281 283 283 282 280 280 281 281 280 278 277 276 277 277 277 278 279 281 283 284 286 287 286 286 286 286 288 289 288 287 286 285 284
271 270 269 270 273 273 274 274 274 274 276 279 282 282 281 280 280 280 280 279 278 276 276 275 275 277 279 281 283 284 285 286 286 287 287 287 287 288 289 289 288 287 285 284
271 270 271 271 272 272 272 272 272 273 275 278 280 280 279 280 280 279 280 279 277 276 274 274 275 279 281 282 284 285 286 287 287 287 288 288 288 288 288 288 288 286 285 285
273 272 272 272 270 270 270 270 270 272 274 277 278 278 278 279 280 278 277 277 276 275 275 275 277 280 283 284 286 286 286 288 288 287 287 286 288 289 288 287 285 285 285 285
275 274 273 272 271 270 270 271 272 272 272 274 276 277 278 278 279 278 277 276 275 275 275 276 277 280 282 284 285 286 287 288 288 288 287 288 289 290 289 287 285 284 285 285
278 277 274 272 270 271 270 271 271 271 271 272 273 276 277 277 276 276 276 275 275 275 277 278 279 281 283 284 285 286 288 289 289 289 289 288 289 289 289 287 286 285 285 285
278 278 276 274 272 271 269 269 269 270 270 271 272 273 275 275 274 274 275 276 276 276 279 280 281 282 283 284 285 286 288 288 289 289 289 288 289 289 288 287 286 285 286 286
280 278 276 275 274 271 269 267 268 269 269 270 270 271 273 273 273 273 274 276 277 278 280 281 282 282 283 284 285 285 286 288 289 289 289 289 289 288 287 286 285 285 287 287
279 278 277 275 273 271 269 268 268 268 268 269 269 270 272 273 273 273 274 276 278 279 281 282 283 283 283 284 284 285 285 286 287 289 289 290 290 288 287 286 285 286 287 287
278 277 275 273 273 272 269 267 266 266 267 267 268 269 270 271 272 272 274 277 279 280 281 282 283 284 285 285 285 285 285 286 287 288 289 290 289 288 287 285 285 286 287 288
277 276 274 273 272 271 270 268 267 267 267 267 267 268 268 269 271 273 275 277 278 280 280 280 282 284 285 286 285 285 285 286 287 288 289 289 288 288 287 286 287 288 288 289
Height
5789 5789 5789 5790 5790 5790 5790 5790 5790 5791 5790 5789 5788 5787 5786 5785 5784 5784 5783 5783 5783 5782 5782 5781 5781 5780 5780 5779 5779 5778 5777 5775 5774 5773 5772 5771 5770 5768 5767 5766 5764 5763 5762 5760
5784 5784 5784 5784 5785 5784 5784 5784 5784 5784 5784 5782 5782 5781 5780 5779 5778 5777 5777 5776 5776 5776 5775 5775 5774 5774 5773 5772 5772 5771 5770 5769 5768 5766 5765 5764 5763 5762 5761 5760 5759 5757 5756 5754
5779 5779 5778 5779 5780 5779 5779 5778 5778 5778 5778 5776 5775 5774 5773 5772 5772 5771 5770 5770 5769 5769 5769 5768 5768 5767 5767 5766 5765 5764 5763 5762 5761 5760 5759 5758 5757 5756 5755 5754 5752 5751 5750 5748
5773 5773 5773 5776 5774 5773 5773 5772 5772 5771 5771 5770 5769 5768 5767 5766 5765 5764 5764 5763 5762 5762 5762 5762 5761 5761 5760 5759 5759 5758 5757 5756 5755 5754 5753 5752 5750 5750 5748 5747 5746 5744 5743 5742
5766 5766 5767 5769 5768 5767 5766 5766 5766 5765 5764 5763 5762 5761 5760 5759 5758 5757 5757 5756 5755 5755 5755 5755 5755 5754 5754 5753 5752 5751 5750 5750 5749 5747 5746 5745 5744 5743 5742 5741 5739 5738 5736 5734
5760 5759 5760 5764 5762 5760 5761 5760 5759 5758 5757 5756 5755 5755 5754 5752 5751 5750 5750 5749 5748 5748 5748 5748 5748 5747 5747 5746 5745 5745 5744 5743 5742 5740 5739 5738 5737 5736 5735 5734 5732 5731 5729 5727
5753 5753 5754 5756 5755 5754 5755 5755 5752 5751 5750 5749 5748 5748 5747 5745 5744 5743 5742 5741 5741 5741 5741 5741 5741 5741 5740 5740 5739 5738 5737 5736 5735 5734 5732 5731 5730 5729 5728 5726 5725 5723 5722 5720
5747 5747 5750 5749 5748 5748 5748 5746 5745 5744 5743 5742 5741 5740 5739 5738 5737 5736 5735 5734 5733 5733 5734 5734 5734 5734 5734 5733 5733 5731 5730 5729 5728 5727 5726 5725 5723 5722 5720 5719 5718 5716 5714 5712
5741 5743 5742 5741 5740 5740 5739 5739 5738 5737 5736 5735 5734 5733 5732 5731 5730 5729 5728 5727 5726 5726 5726 5727 5727 5727 5727 5726 5726 5725 5724 5723 5721 5720 5719 5717 5716 5715 5713 5712 5710 5708 5706 5704
5734 5735 5734 5734 5733 5733 5732 5731 5731 5730 5729 5728 5727 5726 5725 5724 5723 5721 5720 5719 5719 5719 5719 5719 5719 5719 5719 5719 5718 5718 5717 5715 5714 5712 5711 5709 5708 5707 5705 5704 5702 5700 5698 5696
5727 5728 5727 5727 5726 5726 5725 5724 5724 5722 5721 5720 5720 5719 5718 5717 5715 5714 5713 5712 5711 5711 5712 5712 5712 5712 5712 5711 5711 5710 5709 5708 5706 5705 5703 5702 5700 5698 5697 5696 5694 5692 5690 5688
5720 5720 5719 5720 5719 5719 5718 5717 5716 5715 5714 5713 5712 5711 5710 5709 5708 5707 5705 5705 5704 5704 5704 5704 5704 5704 5704 5704 5703 5702 5701 5699 5698 5697 5695 5694 5692 5690 5689 5687 5686 5684 5681 5680
5711 5711 5711 5711 5711 5711 5710 5709 5709 5708 5707 5706 5705 5704 5702 5701 5700 5699 5698 5697 5697 5696 5696 5696 5696 5696 5696 5695 5695 5694 5693 5691 5690 5689 5687 5685 5684 5682 5681 5679 5677 5675 5673 5671
5703 5703 5703 5703 5703 5703 5702 5701 5701 5700 5699 5698 5697 5696 5695 5694 5693 5692 5691 5690 5689 5689 5688 5688 5688 5687 5687 5687 5686 5685 5684 5683 5682 5681 5679 5677 5675 5674 5672 5670 5669 5667 5665 5663
5695 5694 5695 5695 5695 5694 5694 5693 5693 5692 5692 5691 5690 5688 5687 5686 5686 5684 5683 5682 5681 5681 5680 5680 5680 5679 5679 5678 5677 5677 5676 5675 5673 5672 5670 5668 5667 5665 5663 5662 5660 5658 5656 5654
5686 5686 5686 5686 5686 5686 5686 5685 5685 5685 5684 5683 5682 5681 5680 5679 5678 5677 5675 5674 5674 5673 5673 5672 5672 5671 5670 5670 5669 5668 5667 5666 5665 5663 5661 5660 5658 5656 5654 5652 5650 5648 5646 5645
5677 5677 5677 5677 5678 5677 5677 5677 5676 5676 5675 5675 5674 5673 5672 5671 5670 5669 5668 5667 5666 5665 5665 5665 5664 5663 5662 5662 5661 5660 5659 5658 5656 5654 5653 5651 5649 5647 5645 5643 5641 5639 5637 5635
5667 5668 5668 5668 5668 5668 5668 5668 5667 5667 5667 5666 5665 5664 5663 5662 5661 5660 5660 5659 5658 5658 5657 5657 5656 5656 5655 5654 5653 5652 5650 5649 5647 5645 5644 5642 5640 5638 5636 5633 5631 5629 5628 5626
5658 5658 5658 5658 5658 5658 5658 5658 5658 5658 5658 5657 5656 5656 5655 5654 5653 5652 5651 5651 5650 5650 5650 5649 5648 5648 5647 5646 5645 5643 5642 5640 5638 5636 5635 5633 5631 5629 5627 5624 5622 5620 5619 5617
5648 5649 5649 5649 5649 5649 5649 5649 5649 5649 5649 5648 5647 5647 5646 5646 5645 5644 5643 5643 5642 5642 5642 5641 5641 5640 5639 5637 5636 5635 5633 5631 5629 5628 5626 5624 5622 5619 5617 5615 5613 5611 5610 5608
5639 5639 5639 5639 5639 5639 5639 5639 5640 5640 5640 5639 5639 5638 5638 5637 5636 5636 5635 5635 5635 5634 5634 5633 5632 5631 5630 5629 5627 5626 5624 5622 5620 5619 5616 5614 5612 5610 5608 5606 5604 5602 5601 5599
5630 5629 5629 5629 5629 5629 5630 5630 5630 5630 5631 5630 5630 5630 5629 5629 5628 5628 5627 5627 5627 5626 5625 5625 5624 5623 5621 5620 5619 5617 5615 5613 5611 5609 5607 5605 5603 5601 5599 5597 5595 5593 5591 5590
5620 5620 5619 5619 5619 5620 5620 5620 5621 5621 5621 5621 5621 5621 5621 5620 5620 5620 5620 5619 5618 5617 5617 5616 5615 5614 5612 5611 5609 5608 5606 5604 5602 5600 5598 5596 5594 5591 5589 5587 5586 5584 5582 5580
5611 5610 5610 5610 5610 5610 5610 5611 5611 5611 5612 5612 5612 5612 5611 5611 5611 5611 5610 5610 5609 5608 5607 5607 5605 5604 5603 5601 5600 5598 5597 5595 5593 5591 5588 5586 5584 5582 5580 5578 5576 5574 5573 5571
5602 5601 5601 5600 5600 5600 5601 5601 5601 5602 5602 5602 5602 5602 5602 5602 5602 5601 5601 5600 5600 5599 5598 5597 5596 5594 5593 5592 5590 5589 5587 5585 5583 5581 5579 5577 5574 5572 5570 5568 5566 5565 5563 5561
5592 5592 5592 5591 5591 5591 5591 5591 5591 5592 5592 5592 5592 5592 5592 5592 5592 5592 5591 5591 5590 5589 5589 5587 5586 5585 5584 5582 5581 5579 5577 5575 5574 5572 5570 5567 5565 5563 5561 5559 5557 5556 5554 5552
5583 5582 5582 5582 5582 5581 5581 5581 5581 5582 5582 5582 5582 5582 5582 5582 5582 5582 5581 5581 5580 5580 5579 5578 5577 5575 5574 5573 5571 5570 5568 5566 5564 5562 5560 5558 5556 5554 5552 5550 5549 5547 5545 5543